Data No, UTC Date,UTC Time,Latitude,Longitude,Course(deg),Temp(degC),Sal(psu)
496,2020/11/19,8:15,42-36.95N,141-37.09E,209,11.172,33.2902
497,2020/11/19,8:16,42-36.73N,141-36.90E,213,11.308,33.3095
498,2020/11/19,8:17,42-36.49N,141-36.79E,187,11.455,33.3986
499,2020/11/19,8:18,42-36.26N,141-36.88E,157,11.824,33.4722
500,2020/11/19,8:19,42-36.04N,141-37.03E,151,11.974,33.536
501,2020/11/19,8:20,42-35.81N,141-37.20E,151,12.047,33.6473
502,2020/11/19,8:21,42-35.57N,141-37.37E,152,12.106,33.6901
503,2020/11/19,8:22,42-35.32N,141-37.54E,153,12.183,33.7082
504,2020/11/19,8:23,42-35.05N,141-37.73E,153,12.237,33.7509
505,2020/11/19,8:24,42-34.78N,141-37.91E,153,12.329,33.7832
506,2020/11/19,8:25,42-34.52N,141-38.08E,153,12.385,33.789
507,2020/11/19,8:26,42-34.26N,141-38.25E,154,12.398,33.7944
508,2020/11/19,8:27,42-34.03N,141-38.41E,153,12.642,33.8135
509,2020/11/19,8:28,42-33.76N,141-38.58E,153,12.743,33.8342
510,2020/11/19,8:29,42-33.46N,141-38.79E,153,12.8,33.8352
511,2020/11/19,8:30,42-33.23N,141-38.95E,153,12.781,33.8202
512,2020/11/19,8:31,42-32.95N,141-39.13E,153,12.743,33.8161
513,2020/11/19,8:32,42-32.68N,141-39.34E,148,12.694,33.805
514,2020/11/19,8:33,42-32.41N,141-39.63E,138,12.654,33.8319
515,2020/11/19,8:34,42-32.20N,141-39.94E,131,12.632,33.8183
516,2020/11/19,8:35,42-31.99N,141-40.27E,130,12.717,33.818
517,2020/11/19,8:36,42-31.79N,141-40.59E,129,12.798,33.8273
518,2020/11/19,8:37,42-31.59N,141-40.94E,129,12.895,33.8145
519,2020/11/19,8:38,42-31.40N,141-41.26E,128,12.977,33.819
520,2020/11/19,8:39,42-31.22N,141-41.56E,128,13.006,33.8134
521,2020/11/19,8:40,42-31.01N,141-41.92E,128,13.012,33.8234
522,2020/11/19,8:41,42-30.78N,141-42.31E,128,13.025,33.8215
523,2020/11/19,8:42,42-30.57N,141-42.67E,128,13.059,33.8268
524,2020/11/19,8:43,42-30.37N,141-43.01E,128,13.071,33.8038
525,2020/11/19,8:44,42-30.18N,141-43.33E,128,13.078,33.7986
526,2020/11/19,8:45,42-29.98N,141-43.66E,128,13.099,33.8163
527,2020/11/19,8:46,42-29.78N,141-44.00E,128,13.116,33.8015
528,2020/11/19,8:47,42-29.57N,141-44.35E,129,13.128,33.7994
529,2020/11/19,8:48,42-29.37N,141-44.69E,129,13.137,33.8055
530,2020/11/19,8:49,42-29.13N,141-45.08E,129,13.132,33.7949
531,2020/11/19,8:50,42-28.92N,141-45.43E,129,13.126,33.7892
532,2020/11/19,8:51,42-28.71N,141-45.77E,129,13.12,33.8216
533,2020/11/19,8:52,42-28.50N,141-46.12E,129,13.115,33.8096
534,2020/11/19,8:53,42-28.29N,141-46.46E,129,13.08,33.8174
535,2020/11/19,8:54,42-28.08N,141-46.80E,129,13.086,33.8134
536,2020/11/19,8:55,42-27.87N,141-47.15E,129,13.094,33.7912
537,2020/11/19,8:56,42-27.66N,141-47.49E,129,13.132,33.8151
538,2020/11/19,8:57,42-27.48N,141-47.79E,129,13.165,33.8123
539,2020/11/19,8:58,42-27.28N,141-48.13E,129,13.257,33.8127
540,2020/11/19,8:59,42-27.07N,141-48.48E,129,13.304,33.8171
541,2020/11/19,9:00,42-26.85N,141-48.83E,129,13.326,33.8143
542,2020/11/19,9:01,42-26.65N,141-49.17E,129,13.355,33.8043
543,2020/11/19,9:02,42-26.43N,141-49.52E,128,13.532,33.8112
544,2020/11/19,9:03,42-26.23N,141-49.86E,129,13.743,33.8241
545,2020/11/19,9:04,42-26.02N,141-50.21E,129,13.815,33.799
546,2020/11/19,9:05,42-25.81N,141-50.56E,129,13.836,33.8106
547,2020/11/19,9:06,42-25.60N,141-50.91E,129,13.854,33.7866
548,2020/11/19,9:07,42-25.38N,141-51.26E,130,13.813,33.795
549,2020/11/19,9:08,42-25.14N,141-51.64E,130,13.77,33.8031
550,2020/11/19,9:09,42-24.92N,141-51.99E,130,13.716,33.7698
551,2020/11/19,9:10,42-24.70N,141-52.34E,130,13.656,33.7924
552,2020/11/19,9:11,42-24.49N,141-52.67E,130,13.572,33.7719
553,2020/11/19,9:12,42-24.30N,141-52.98E,130,13.382,33.7843
554,2020/11/19,9:13,42-24.09N,141-53.32E,127,13.246,33.7916
555,2020/11/19,9:14,42-23.91N,141-53.69E,123,13.14,33.7689
556,2020/11/19,9:15,42-23.73N,141-54.07E,121,12.993,33.8022
557,2020/11/19,9:16,42-23.53N,141-54.50E,121,12.914,33.7912
558,2020/11/19,9:17,42-23.35N,141-54.90E,121,12.88,33.7887
559,2020/11/19,9:18,42-23.18N,141-55.28E,121,12.864,33.7976
560,2020/11/19,9:19,42-23.01N,141-55.66E,121,12.87,33.7865
561,2020/11/19,9:20,42-22.86N,141-56.00E,120,12.868,33.7929
562,2020/11/19,9:21,42-22.69N,141-56.38E,121,12.82,33.8015
563,2020/11/19,9:22,42-22.52N,141-56.77E,121,12.852,33.8021
564,2020/11/19,9:23,42-22.35N,141-57.16E,121,12.878,33.8009
565,2020/11/19,9:24,42-22.18N,141-57.53E,121,12.913,33.8175
566,2020/11/19,9:25,42-21.98N,141-57.97E,120,12.986,33.806
567,2020/11/19,9:26,42-21.81N,141-58.35E,121,13.082,33.8088
568,2020/11/19,9:27,42-21.63N,141-58.74E,121,13.149,33.8086
569,2020/11/19,9:28,42-21.47N,141-59.12E,121,13.218,33.7957
570,2020/11/19,9:29,42-21.30N,141-59.50E,120,13.24,33.8229
571,2020/11/19,9:30,42-21.12N,141-59.89E,120,13.24,33.8143
572,2020/11/19,9:31,42-20.95N,142-00.27E,121,13.22,33.8111
573,2020/11/19,9:32,42-20.77N,142-00.66E,121,13.204,33.8053
574,2020/11/19,9:33,42-20.60N,142-01.03E,121,13.154,33.8129
575,2020/11/19,9:34,42-20.43N,142-01.42E,120,13.099,33.8106
576,2020/11/19,9:35,42-20.26N,142-01.82E,121,13.013,33.815
577,2020/11/19,9:36,42-20.09N,142-02.20E,120,12.965,33.8221
578,2020/11/19,9:37,42-19.92N,142-02.58E,120,12.908,33.8118
579,2020/11/19,9:38,42-19.77N,142-02.92E,121,12.868,33.8076
580,2020/11/19,9:39,42-19.60N,142-03.31E,120,12.827,33.8008
581,2020/11/19,9:40,42-19.43N,142-03.71E,120,12.835,33.7949
582,2020/11/19,9:41,42-19.27N,142-04.09E,119,13.084,33.8026
583,2020/11/19,9:42,42-19.10N,142-04.48E,120,13.438,33.8359
584,2020/11/19,9:43,42-18.94N,142-04.86E,119,13.569,33.8151
585,2020/11/19,9:44,42-18.78N,142-05.25E,119,13.722,33.8135
586,2020/11/19,9:45,42-18.62N,142-05.64E,119,13.987,33.7921
587,2020/11/19,9:46,42-18.46N,142-06.02E,118,14.281,33.801
588,2020/11/19,9:47,42-18.30N,142-06.41E,119,14.476,33.8211
589,2020/11/19,9:48,42-18.15N,142-06.79E,118,14.577,33.7988
590,2020/11/19,9:49,42-17.99N,142-07.18E,119,14.642,33.79
591,2020/11/19,9:50,42-17.83N,142-07.57E,119,14.669,33.7792
592,2020/11/19,9:51,42-17.67N,142-07.96E,119,14.688,33.7761
593,2020/11/19,9:52,42-17.50N,142-08.35E,119,14.7,33.7976
594,2020/11/19,9:53,42-17.34N,142-08.74E,119,14.705,33.7693
595,2020/11/19,9:54,42-17.18N,142-09.14E,119,14.72,33.7668
596,2020/11/19,9:55,42-17.01N,142-09.54E,119,14.739,33.7781
597,2020/11/19,9:56,42-16.84N,142-09.92E,119,14.748,33.7815
598,2020/11/19,9:57,42-16.65N,142-10.35E,120,14.762,33.7729
599,2020/11/19,9:58,42-16.49N,142-10.75E,119,14.767,33.7877
600,2020/11/19,9:59,42-16.33N,142-11.10E,120,14.776,33.7807
601,2020/11/19,10:00,42-16.16N,142-11.50E,120,14.783,33.7803
602,2020/11/19,10:01,42-15.99N,142-11.88E,121,14.789,33.7663
603,2020/11/19,10:02,42-15.82N,142-12.28E,120,14.728,33.77
604,2020/11/19,10:03,42-15.63N,142-12.73E,119,14.654,33.7432
605,2020/11/19,10:04,42-15.46N,142-13.14E,117,14.54,33.7458
606,2020/11/19,10:05,42-15.30N,142-13.56E,117,14.39,33.7384
607,2020/11/19,10:06,42-15.15N,142-13.96E,117,14.028,33.7459
608,2020/11/19,10:07,42-15.00N,142-14.38E,115,13.175,33.7135
609,2020/11/19,10:08,42-14.86N,142-14.80E,114,12.697,33.6268
610,2020/11/19,10:09,42-14.74N,142-15.15E,115,12.74,33.5349
611,2020/11/19,10:10,42-14.58N,142-15.57E,116,13.411,33.4527
612,2020/11/19,10:11,42-14.42N,142-15.97E,119,13.627,33.563
613,2020/11/19,10:12,42-14.24N,142-16.38E,121,13.694,33.6905
614,2020/11/19,10:13,42-14.04N,142-16.76E,123,13.733,33.725
615,2020/11/19,10:14,42-13.84N,142-17.15E,124,13.757,33.7729
616,2020/11/19,10:15,42-13.67N,142-17.51E,124,13.774,33.7697
617,2020/11/19,10:16,42-13.45N,142-17.94E,124,13.778,33.7806
618,2020/11/19,10:17,42-13.25N,142-18.32E,124,13.782,33.7661
619,2020/11/19,10:18,42-13.08N,142-18.66E,124,13.797,33.7586
620,2020/11/19,10:19,42-12.88N,142-19.05E,124,13.814,33.7838
621,2020/11/19,10:20,42-12.69N,142-19.43E,124,13.817,33.7746
622,2020/11/19,10:21,42-12.50N,142-19.81E,124,13.833,33.7724
623,2020/11/19,10:22,42-12.31N,142-20.20E,124,13.849,33.7636
624,2020/11/19,10:23,42-12.11N,142-20.58E,124,13.847,33.7642
625,2020/11/19,10:24,42-11.92N,142-20.97E,124,13.833,33.7825
626,2020/11/19,10:25,42-11.69N,142-21.42E,123,13.841,33.772
627,2020/11/19,10:26,42-11.50N,142-21.80E,123,13.932,33.7758
628,2020/11/19,10:27,42-11.31N,142-22.18E,123,14.078,33.7701
629,2020/11/19,10:28,42-11.11N,142-22.56E,123,14.129,33.7602
630,2020/11/19,10:29,42-10.92N,142-22.94E,124,14.111,33.7823
631,2020/11/19,10:30,42-10.73N,142-23.32E,124,14.07,33.774
632,2020/11/19,10:31,42-10.54N,142-23.70E,123,14.045,33.7753
633,2020/11/19,10:32,42-10.34N,142-24.08E,123,14.192,33.7678
634,2020/11/19,10:33,42-10.15N,142-24.47E,123,14.333,33.772
635,2020/11/19,10:34,42-09.96N,142-24.85E,123,14.452,33.7847
636,2020/11/19,10:35,42-09.77N,142-25.25E,121,14.601,33.7716
637,2020/11/19,10:36,42-09.60N,142-25.64E,120,14.653,33.7784
638,2020/11/19,10:37,42-09.43N,142-26.03E,120,14.68,33.7504
639,2020/11/19,10:38,42-09.26N,142-26.41E,120,14.895,33.7522
640,2020/11/19,10:39,42-09.08N,142-26.83E,120,15.018,33.7576
641,2020/11/19,10:40,42-08.90N,142-27.23E,121,15.038,33.7468
642,2020/11/19,10:41,42-08.72N,142-27.62E,120,15.031,33.7377
643,2020/11/19,10:42,42-08.55N,142-28.01E,120,15.118,33.7242
644,2020/11/19,10:43,42-08.37N,142-28.41E,120,15.201,33.7533
645,2020/11/19,10:44,42-08.19N,142-28.80E,120,15.223,33.7285
646,2020/11/19,10:45,42-08.01N,142-29.20E,120,15.259,33.7428
647,2020/11/19,10:46,42-07.84N,142-29.59E,120,15.273,33.7303
648,2020/11/19,10:47,42-07.66N,142-29.98E,120,15.297,33.7394
649,2020/11/19,10:48,42-07.49N,142-30.37E,121,15.346,33.7185
650,2020/11/19,10:49,42-07.31N,142-30.75E,121,15.374,33.7258
651,2020/11/19,10:50,42-07.13N,142-31.15E,121,15.37,33.6946
652,2020/11/19,10:51,42-06.96N,142-31.53E,120,15.377,33.7109
653,2020/11/19,10:52,42-06.79N,142-31.91E,120,15.397,33.7098
654,2020/11/19,10:53,42-06.62N,142-32.31E,120,15.397,33.7023
655,2020/11/19,10:54,42-06.44N,142-32.69E,120,15.419,33.6894
656,2020/11/19,10:55,42-06.27N,142-33.08E,121,15.452,33.6992
657,2020/11/19,10:56,42-06.09N,142-33.46E,121,15.474,33.69
658,2020/11/19,10:57,42-05.92N,142-33.85E,121,15.475,33.692
659,2020/11/19,10:58,42-05.74N,142-34.24E,120,15.483,33.6893
660,2020/11/19,10:59,42-05.57N,142-34.63E,120,15.495,33.7056
661,2020/11/19,11:00,42-05.41N,142-34.97E,121,15.503,33.6942
662,2020/11/19,11:01,42-05.24N,142-35.35E,121,15.503,33.7014
663,2020/11/19,11:02,42-05.06N,142-35.74E,120,15.516,33.6842
664,2020/11/19,11:03,42-04.89N,142-36.13E,121,15.526,33.7016
665,2020/11/19,11:04,42-04.72N,142-36.51E,121,15.501,33.6969
666,2020/11/19,11:05,42-04.54N,142-36.90E,121,15.48,33.7051
667,2020/11/19,11:06,42-04.37N,142-37.28E,121,15.48,33.6873
668,2020/11/19,11:07,42-04.19N,142-37.67E,121,15.477,33.7016
669,2020/11/19,11:08,42-04.02N,142-38.06E,121,15.49,33.6962
670,2020/11/19,11:09,42-03.84N,142-38.44E,121,15.501,33.7008
671,2020/11/19,11:10,42-03.67N,142-38.83E,120,15.496,33.6905
672,2020/11/19,11:11,42-03.50N,142-39.22E,120,15.5,33.682
673,2020/11/19,11:12,42-03.33N,142-39.61E,121,15.502,33.6977
674,2020/11/19,11:13,42-03.15N,142-40.00E,121,15.5,33.6862
675,2020/11/19,11:14,42-02.98N,142-40.39E,121,15.493,33.6924
676,2020/11/19,11:15,42-02.80N,142-40.77E,121,15.482,33.6752
677,2020/11/19,11:16,42-02.62N,142-41.17E,121,15.46,33.6935
678,2020/11/19,11:17,42-02.45N,142-41.55E,121,15.451,33.6894
679,2020/11/19,11:18,42-02.27N,142-41.95E,120,15.43,33.7086
680,2020/11/19,11:19,42-02.08N,142-42.39E,120,15.408,33.7004
681,2020/11/19,11:20,42-01.91N,142-42.78E,121,15.368,33.6985
682,2020/11/19,11:21,42-01.75N,142-43.12E,121,15.326,33.7094
683,2020/11/19,11:22,42-01.58N,142-43.50E,121,15.297,33.7226
684,2020/11/19,11:23,42-01.40N,142-43.90E,121,15.263,33.7067
685,2020/11/19,11:24,42-01.23N,142-44.28E,121,15.22,33.7172
686,2020/11/19,11:25,42-01.05N,142-44.67E,121,15.174,33.7156
687,2020/11/19,11:26,42-00.87N,142-45.06E,121,15.159,33.7337
688,2020/11/19,11:27,42-00.69N,142-45.45E,121,15.141,33.7142
689,2020/11/19,11:28,42-00.50N,142-45.89E,121,15.128,33.7123
690,2020/11/19,11:29,42-00.32N,142-46.28E,121,15.108,33.7335
691,2020/11/19,11:30,42-00.17N,142-46.62E,121,15.111,33.735
692,2020/11/19,11:31,41-59.99N,142-47.02E,121,15.108,33.7285
693,2020/11/19,11:32,41-59.81N,142-47.40E,121,15.027,33.7228
694,2020/11/19,11:33,41-59.63N,142-47.80E,121,14.96,33.7407
695,2020/11/19,11:34,41-59.43N,142-48.23E,121,14.957,33.7343
696,2020/11/19,11:35,41-59.25N,142-48.63E,120,14.999,33.7376
697,2020/11/19,11:36,41-59.08N,142-49.03E,120,15.02,33.7453
698,2020/11/19,11:37,41-58.90N,142-49.42E,120,15.044,33.7603
699,2020/11/19,11:38,41-58.72N,142-49.82E,121,15.012,33.757
700,2020/11/19,11:39,41-58.56N,142-50.18E,121,14.956,33.7588
701,2020/11/19,11:40,41-58.40N,142-50.54E,120,14.922,33.75
702,2020/11/19,11:41,41-58.22N,142-50.94E,121,14.887,33.758
703,2020/11/19,11:42,41-58.04N,142-51.32E,121,14.826,33.7499
704,2020/11/19,11:43,41-57.85N,142-51.72E,121,14.774,33.7611
705,2020/11/19,11:44,41-57.68N,142-52.11E,121,14.609,33.7379
706,2020/11/19,11:45,41-57.50N,142-52.50E,121,14.517,33.7564
707,2020/11/19,11:46,41-57.29N,142-52.95E,121,14.526,33.74
708,2020/11/19,11:47,41-57.11N,142-53.33E,122,14.57,33.7536
709,2020/11/19,11:48,41-56.93N,142-53.72E,122,14.623,33.7405
710,2020/11/19,11:49,41-56.76N,142-54.08E,121,14.642,33.7518
711,2020/11/19,11:50,41-56.59N,142-54.45E,121,14.63,33.7483
712,2020/11/19,11:51,41-56.41N,142-54.84E,121,14.588,33.7517
713,2020/11/19,11:52,41-56.23N,142-55.23E,121,14.508,33.7475
714,2020/11/19,11:53,41-56.05N,142-55.62E,121,14.402,33.7571
715,2020/11/19,11:54,41-55.86N,142-56.01E,122,14.295,33.7762
716,2020/11/19,11:55,41-55.68N,142-56.39E,121,14.237,33.7672
717,2020/11/19,11:56,41-55.47N,142-56.84E,122,14.197,33.7583
718,2020/11/19,11:57,41-55.29N,142-57.22E,122,14.164,33.7798
719,2020/11/19,11:58,41-55.11N,142-57.61E,122,14.143,33.7739
720,2020/11/19,11:59,41-54.92N,142-58.00E,122,14.108,33.7728
721,2020/11/19,12:00,41-54.74N,142-58.39E,122,14.087,33.7766
722,2020/11/19,12:01,41-54.55N,142-58.78E,123,14.073,33.7551
723,2020/11/19,12:02,41-54.36N,142-59.16E,123,14.067,33.7913
724,2020/11/19,12:03,41-54.17N,142-59.55E,123,14.069,33.7782
725,2020/11/19,12:04,41-53.98N,142-59.94E,122,14.062,33.7767
726,2020/11/19,12:05,41-53.80N,143-00.33E,123,14.056,33.7743
727,2020/11/19,12:06,41-53.60N,143-00.72E,123,14.047,33.7702
728,2020/11/19,12:07,41-53.41N,143-01.10E,123,14.045,33.7881
729,2020/11/19,12:08,41-53.22N,143-01.49E,123,14.03,33.7892
730,2020/11/19,12:09,41-53.02N,143-01.89E,123,14.011,33.7787
731,2020/11/19,12:10,41-52.83N,143-02.27E,124,13.989,33.7633
732,2020/11/19,12:11,41-52.63N,143-02.67E,123,13.961,33.7783
733,2020/11/19,12:12,41-52.44N,143-03.05E,124,13.943,33.7755
734,2020/11/19,12:13,41-52.25N,143-03.44E,124,13.911,33.7837
735,2020/11/19,12:14,41-52.05N,143-03.84E,123,13.877,33.7773
736,2020/11/19,12:15,41-51.86N,143-04.22E,124,13.844,33.7679
737,2020/11/19,12:16,41-51.66N,143-04.61E,124,13.792,33.7925
738,2020/11/19,12:17,41-51.46N,143-04.99E,124,13.728,33.7743
739,2020/11/19,12:18,41-51.26N,143-05.38E,124,13.598,33.7799
740,2020/11/19,12:19,41-51.06N,143-05.78E,124,13.43,33.7742
741,2020/11/19,12:20,41-50.86N,143-06.16E,124,13.237,33.7535
742,2020/11/19,12:21,41-50.69N,143-06.50E,124,13.016,33.7646
743,2020/11/19,12:22,41-50.50N,143-06.88E,124,12.833,33.7565
744,2020/11/19,12:23,41-50.27N,143-07.32E,122,12.63,33.7632
745,2020/11/19,12:24,41-50.10N,143-07.74E,118,12.467,33.7513
746,2020/11/19,12:25,41-49.93N,143-08.15E,118,12.131,33.7416
747,2020/11/19,12:26,41-49.76N,143-08.57E,118,11.912,33.7269
748,2020/11/19,12:27,41-49.60N,143-08.98E,117,11.877,33.6578
749,2020/11/19,12:28,41-49.44N,143-09.39E,117,11.829,33.6265
750,2020/11/19,12:29,41-49.28N,143-09.81E,117,11.735,33.6012
751,2020/11/19,12:30,41-49.12N,143-10.20E,118,11.61,33.6059
752,2020/11/19,12:31,41-48.95N,143-10.61E,119,11.555,33.5612
753,2020/11/19,12:32,41-48.78N,143-11.01E,119,11.545,33.5398
754,2020/11/19,12:33,41-48.64N,143-11.36E,119,11.592,33.5402
755,2020/11/19,12:34,41-48.49N,143-11.76E,108,11.669,33.5324
756,2020/11/19,12:35,41-48.49N,143-12.23E,87,11.718,33.5452
757,2020/11/19,12:36,41-48.52N,143-12.67E,83,11.715,33.5799
758,2020/11/19,12:37,41-48.56N,143-13.10E,83,11.694,33.5771
759,2020/11/19,12:38,41-48.59N,143-13.55E,86,11.575,33.5848
760,2020/11/19,12:39,41-48.60N,143-14.00E,87,11.506,33.5485
761,2020/11/19,12:40,41-48.61N,143-14.44E,89,11.464,33.5424
762,2020/11/19,12:41,41-48.61N,143-14.89E,90,11.445,33.506
763,2020/11/19,12:42,41-48.60N,143-15.33E,91,11.427,33.507
764,2020/11/19,12:43,41-48.59N,143-15.78E,91,11.419,33.493
765,2020/11/19,12:44,41-48.57N,143-16.23E,92,11.439,33.5182
766,2020/11/19,12:45,41-48.56N,143-16.67E,92,11.483,33.5042
767,2020/11/19,12:46,41-48.54N,143-17.13E,92,11.519,33.504
768,2020/11/19,12:47,41-48.53N,143-17.57E,92,11.559,33.5176
769,2020/11/19,12:48,41-48.51N,143-18.02E,92,11.57,33.5157
770,2020/11/19,12:49,41-48.49N,143-18.47E,92,11.567,33.5127
771,2020/11/19,12:50,41-48.48N,143-18.92E,92,11.552,33.505
772,2020/11/19,12:51,41-48.47N,143-19.37E,92,11.549,33.52
773,2020/11/19,12:52,41-48.47N,143-19.82E,89,11.546,33.5027
774,2020/11/19,12:53,41-48.48N,143-20.27E,87,11.544,33.5049
775,2020/11/19,12:54,41-48.58N,143-20.68E,63,11.542,33.521
776,2020/11/19,12:55,41-48.83N,143-20.91E,31,11.548,33.5305
777,2020/11/19,12:56,41-49.12N,143-21.11E,28,11.569,33.5256
778,2020/11/19,12:57,41-49.36N,143-21.30E,30,11.593,33.5045
779,2020/11/19,12:58,41-49.65N,143-21.54E,31,11.599,33.5266
780,2020/11/19,12:59,41-49.98N,143-21.82E,32,11.618,33.5091
781,2020/11/19,13:00,41-50.27N,143-22.07E,33,11.619,33.5125
782,2020/11/19,13:01,41-50.51N,143-22.30E,34,11.618,33.5085
783,2020/11/19,13:02,41-50.79N,143-22.56E,35,11.624,33.5326
784,2020/11/19,13:03,41-51.07N,143-22.83E,35,11.622,33.516
785,2020/11/19,13:04,41-51.36N,143-23.10E,35,11.623,33.5063
786,2020/11/19,13:05,41-51.63N,143-23.37E,35,11.62,33.5159
787,2020/11/19,13:06,41-51.92N,143-23.64E,35,11.627,33.5003
788,2020/11/19,13:07,41-52.19N,143-23.91E,35,11.618,33.5009
789,2020/11/19,13:08,41-52.46N,143-24.17E,35,11.613,33.4864
790,2020/11/19,13:09,41-52.74N,143-24.45E,36,11.616,33.5197
791,2020/11/19,13:10,41-53.01N,143-24.71E,36,11.612,33.4978
792,2020/11/19,13:11,41-53.28N,143-24.99E,36,11.621,33.5246
793,2020/11/19,13:12,41-53.55N,143-25.25E,36,11.625,33.5195
794,2020/11/19,13:13,41-53.86N,143-25.56E,36,11.628,33.5169
795,2020/11/19,13:14,41-54.13N,143-25.83E,36,11.637,33.5115
796,2020/11/19,13:15,41-54.40N,143-26.09E,36,11.643,33.5085
797,2020/11/19,13:16,41-54.67N,143-26.37E,36,11.647,33.5011
798,2020/11/19,13:17,41-54.94N,143-26.63E,36,11.639,33.5141
799,2020/11/19,13:18,41-55.19N,143-26.89E,36,11.63,33.5095
800,2020/11/19,13:19,41-55.45N,143-27.12E,32,11.63,33.5069
801,2020/11/19,13:20,41-55.74N,143-27.34E,31,11.62,33.5269
802,2020/11/19,13:21,41-56.04N,143-27.58E,30,11.611,33.5053
803,2020/11/19,13:22,41-56.32N,143-27.82E,31,11.577,33.5082
804,2020/11/19,13:23,41-56.61N,143-28.05E,31,11.547,33.5112
805,2020/11/19,13:24,41-56.90N,143-28.28E,31,11.532,33.5001
806,2020/11/19,13:25,41-57.18N,143-28.51E,31,11.504,33.5093
807,2020/11/19,13:26,41-57.47N,143-28.75E,31,11.508,33.4812
808,2020/11/19,13:27,41-57.75N,143-28.98E,31,11.508,33.493
809,2020/11/19,13:28,41-58.03N,143-29.21E,31,11.5,33.4909
810,2020/11/19,13:29,41-58.33N,143-29.44E,30,11.541,33.5066
811,2020/11/19,13:30,41-58.60N,143-29.66E,30,11.582,33.5015
812,2020/11/19,13:31,41-58.89N,143-29.90E,31,11.625,33.5147
813,2020/11/19,13:32,41-59.18N,143-30.13E,31,11.645,33.5096
814,2020/11/19,13:33,41-59.46N,143-30.36E,31,11.661,33.5237
815,2020/11/19,13:34,41-59.75N,143-30.60E,31,11.684,33.4972
816,2020/11/19,13:35,42-00.02N,143-30.83E,30,11.693,33.5205
817,2020/11/19,13:36,42-00.30N,143-31.06E,31,11.698,33.5055
818,2020/11/19,13:37,42-00.58N,143-31.29E,30,11.621,33.5108
819,2020/11/19,13:38,42-00.86N,143-31.52E,31,11.598,33.493
820,2020/11/19,13:39,42-01.15N,143-31.76E,31,11.604,33.5067
821,2020/11/19,13:40,42-01.43N,143-31.99E,31,11.605,33.486
822,2020/11/19,13:41,42-01.71N,143-32.22E,31,11.609,33.4845
823,2020/11/19,13:42,42-01.98N,143-32.45E,31,11.614,33.4991
824,2020/11/19,13:43,42-02.26N,143-32.68E,31,11.596,33.4949
825,2020/11/19,13:44,42-02.55N,143-32.90E,30,11.582,33.4972
826,2020/11/19,13:45,42-02.83N,143-33.12E,29,11.49,33.4617
827,2020/11/19,13:46,42-03.11N,143-33.33E,28,11.419,33.4783
828,2020/11/19,13:47,42-03.40N,143-33.54E,28,11.418,33.4451
829,2020/11/19,13:48,42-03.69N,143-33.75E,29,11.415,33.4303
830,2020/11/19,13:49,42-03.97N,143-33.97E,28,11.415,33.4284
831,2020/11/19,13:50,42-04.25N,143-34.18E,29,11.436,33.437
832,2020/11/19,13:51,42-04.54N,143-34.40E,28,11.462,33.4176
833,2020/11/19,13:52,42-04.83N,143-34.61E,29,11.516,33.4455
834,2020/11/19,13:53,42-05.12N,143-34.82E,29,11.621,33.4531
835,2020/11/19,13:54,42-05.41N,143-35.04E,29,11.706,33.473
836,2020/11/19,13:55,42-05.69N,143-35.25E,27,11.863,33.4698
837,2020/11/19,13:56,42-05.98N,143-35.44E,27,11.998,33.4622
838,2020/11/19,13:57,42-06.27N,143-35.65E,28,12.06,33.4601
839,2020/11/19,13:58,42-06.56N,143-35.86E,28,12.053,33.4588
840,2020/11/19,13:59,42-06.85N,143-36.08E,28,12.005,33.455
841,2020/11/19,14:00,42-07.13N,143-36.29E,29,11.841,33.4414
842,2020/11/19,14:01,42-07.41N,143-36.50E,29,11.778,33.4416
843,2020/11/19,14:02,42-07.70N,143-36.73E,29,11.706,33.4434
844,2020/11/19,14:03,42-07.98N,143-36.94E,30,11.727,33.4632
845,2020/11/19,14:04,42-08.27N,143-37.17E,29,11.535,33.4394
846,2020/11/19,14:05,42-08.55N,143-37.38E,29,11.481,33.4549
847,2020/11/19,14:06,42-08.83N,143-37.60E,29,11.538,33.4616
848,2020/11/19,14:07,42-09.11N,143-37.82E,30,11.605,33.4558
849,2020/11/19,14:08,42-09.40N,143-38.03E,29,11.718,33.4502
850,2020/11/19,14:09,42-09.69N,143-38.25E,29,11.829,33.4893
851,2020/11/19,14:10,42-09.97N,143-38.47E,29,11.919,33.4541
852,2020/11/19,14:11,42-10.26N,143-38.68E,29,11.989,33.4417
853,2020/11/19,14:12,42-10.54N,143-38.90E,29,12.03,33.4515
854,2020/11/19,14:13,42-10.82N,143-39.11E,28,12.049,33.4376
855,2020/11/19,14:14,42-11.11N,143-39.33E,28,12.065,33.4248
856,2020/11/19,14:15,42-11.39N,143-39.54E,30,12.073,33.3942
857,2020/11/19,14:16,42-11.68N,143-39.76E,29,12.098,33.4088
858,2020/11/19,14:17,42-11.97N,143-39.98E,29,12.14,33.3976
859,2020/11/19,14:18,42-12.26N,143-40.20E,29,12.134,33.4027
860,2020/11/19,14:19,42-12.56N,143-40.42E,29,12.114,33.4001
861,2020/11/19,14:20,42-12.84N,143-40.64E,29,12.086,33.3945
862,2020/11/19,14:21,42-13.14N,143-40.86E,29,12.084,33.3792
863,2020/11/19,14:22,42-13.43N,143-41.09E,29,12.107,33.3908
864,2020/11/19,14:23,42-13.72N,143-41.30E,29,12.133,33.3839
865,2020/11/19,14:24,42-14.01N,143-41.53E,29,12.157,33.4036
866,2020/11/19,14:25,42-14.30N,143-41.75E,29,12.049,33.4125
867,2020/11/19,14:26,42-14.63N,143-42.00E,29,11.967,33.4261
868,2020/11/19,14:27,42-14.93N,143-42.23E,29,11.957,33.3719
869,2020/11/19,14:28,42-15.21N,143-42.44E,29,11.939,33.3703
870,2020/11/19,14:29,42-15.51N,143-42.67E,29,11.921,33.3595
871,2020/11/19,14:30,42-15.80N,143-42.89E,29,11.916,33.3462
872,2020/11/19,14:31,42-16.09N,143-43.11E,29,11.915,33.331
873,2020/11/19,14:32,42-16.39N,143-43.33E,29,11.909,33.3525
874,2020/11/19,14:33,42-16.68N,143-43.55E,28,11.9,33.3322
875,2020/11/19,14:34,42-16.97N,143-43.77E,29,11.915,33.3613
876,2020/11/19,14:35,42-17.26N,143-43.98E,29,11.9,33.3568
877,2020/11/19,14:36,42-17.55N,143-44.19E,28,11.897,33.3674
878,2020/11/19,14:37,42-17.85N,143-44.42E,29,11.89,33.3577
879,2020/11/19,14:38,42-18.13N,143-44.64E,29,11.879,33.3533
880,2020/11/19,14:39,42-18.42N,143-44.85E,29,11.83,33.319
881,2020/11/19,14:40,42-18.72N,143-45.09E,30,11.791,33.3247
882,2020/11/19,14:41,42-18.99N,143-45.30E,30,11.772,33.3055
883,2020/11/19,14:42,42-19.26N,143-45.51E,30,11.77,33.2847
884,2020/11/19,14:43,42-19.54N,143-45.73E,30,11.757,33.2827
885,2020/11/19,14:44,42-19.84N,143-45.96E,30,11.744,33.3041
886,2020/11/19,14:45,42-20.12N,143-46.18E,29,11.733,33.2893